Location: Waco, TX
(31.5480°N, 97.1670°W)
Time: 12:01:17
(UTC-05:00)

ISS - Pass Details

Date: 15 August 2018
Orbit: 401 x 409 km, 51.6° (Epoch: 19 August)

Event Time Altitude Azimuth Distance (km) Brightness Sun altitude
Rises 09:59:31 0° 180° (S) 2,297 0.1 38.2°
Reaches altitude 10° 10:03:03 10° 138° (SE) 1,443 -0.3 39.0°
Maximum altitude 10:03:47 11° 125° (SE) 1,409 -0.1 39.1°
Drops below altitude 10° 10:04:31 10° 112° (ESE) 1,445 0.1 39.3°
Sets 10:08:04 0° 71° (ENE) 2,307 0.7 40.0°
